Location: Poprad
(49.0500°N, 20.3000°E)
Time: 15:30:56
(UTC+02:00)

AO-73 - Pass Details

Date: 30 April 2024
Orbit: 559 x 625 km, 97.7° (Epoch: 25 May)

Event Time Altitude Azimuth Distance (km) Brightness Sun altitude
Rises 03:45:43 0° 15° (NNE) 2,925 ? -13.6°
Reaches altitude 10° 03:47:57 10° 18° (NNE) 2,014 ? -13.3°
Maximum altitude 03:52:19 68° 102° (ESE) 678 ? -12.8°
Drops below altitude 10° 03:56:39 10° 185° (S) 1,989 ? -12.2°
Enters shadow 03:56:53 - 186° (S) 2,082 ? -12.2°
